Date String (YYYY-MM-DD hh:mm:ss) UTC,Instrument flags,Ambient pressure (hPa),Sample flow (lpm),Bypass flow (lpm),Sample temperature (°C),Ambient temperature (°C),ASC tube jacket temperature (°C),LED temperature (°C),Box temperature (°C),Sample RH (%),Span deviation,Mass concentration (μg/m³),Mass concentration (μg/m³),Mass concentration (μg/m³)
DateTimeUTC,F1_M11,P_M11,Q1_M11,Q2_M11,T1_M11,T2_M11,T3_M11,T4_M11,T5_M11,U1_M11,ZSPAN_M11,X0_M11,X2_M11,X1_M11
2021-12-09 06:00:00,,0812.6,4.99,0.00,22.4,21.6,00.0,31.4,24.1,16.0,0000.0,0003.34,0000.45,0000.26
2021-12-09 06:01:00,,0812.5,5.01,0.00,22.4,21.6,00.0,31.4,24.2,16.0,0000.0,0004.24,0000.46,0000.28
2021-12-09 06:02:00,,0812.5,5.01,0.00,22.4,21.7,00.0,31.4,24.2,16.0,0000.0,0003.27,0000.47,0000.30
2021-12-09 06:03:00,,0812.5,4.99,0.00,22.4,21.7,00.0,31.4,24.1,16.3,0000.0,0002.77,0000.48,0000.31
2021-12-09 06:04:00,,0812.5,4.99,0.00,22.4,21.7,00.0,31.4,24.2,16.4,0000.0,0002.77,0000.49,0000.31
2021-12-09 06:05:00,,0812.5,5.01,0.00,22.4,21.7,00.0,31.4,24.2,16.4,0000.0,0004.24,0000.52,0000.32
2021-12-09 06:06:00,,0812.5,5.00,0.00,22.4,21.7,00.0,31.4,24.2,16.4,0000.0,0004.61,0000.54,0000.33
2021-12-09 06:07:00,,0812.5,5.01,0.00,22.4,21.7,00.0,31.4,24.2,16.4,0000.0,0004.75,0000.60,0000.33
2021-12-09 06:08:00,,0812.5,4.99,0.00,22.4,21.7,00.0,31.4,24.2,15.8,0000.0,0004.50,0000.64,0000.34
2021-12-09 06:09:00,,0812.5,5.01,0.00,22.5,21.8,00.0,31.4,24.2,15.3,0000.0,0004.28,0000.71,0000.36
2021-12-09 06:10:00,,0812.3,4.99,0.00,22.4,21.8,00.0,31.4,24.2,15.2,0000.0,0004.31,0000.72,0000.37
2021-12-09 06:11:00,,0812.1,5.00,0.00,22.4,21.8,00.0,31.4,24.2,14.9,0000.0,0004.28,0000.73,0000.39
2021-12-09 06:12:00,,0812.3,5.00,0.00,22.4,21.8,00.0,31.4,24.3,15.0,0000.0,0004.54,0000.75,0000.40
2021-12-09 06:13:00,,0812.5,5.01,0.00,22.4,21.8,00.0,31.4,24.2,14.7,0000.0,0004.84,0000.79,0000.42
2021-12-09 06:14:00,,0812.5,4.98,0.00,22.5,21.8,00.0,31.4,24.2,14.7,0000.0,0004.88,0000.81,0000.45
2021-12-09 06:15:00,,0812.4,5.01,0.00,22.5,21.8,00.0,31.4,24.2,14.8,0000.0,0004.89,0000.83,0000.46
2021-12-09 06:16:00,,0812.5,4.99,0.00,22.5,21.8,00.0,31.5,24.3,14.8,0000.0,0003.64,0000.83,0000.48
2021-12-09 06:17:00,,0812.5,5.00,0.00,22.5,21.8,00.0,31.5,24.3,14.9,0000.0,0003.12,0000.84,0000.50
2021-12-09 06:18:00,,0812.5,5.00,0.00,22.5,21.8,00.0,31.5,24.3,15.0,0000.0,0002.91,0000.78,0000.51
2021-12-09 06:19:00,,0812.5,4.99,0.00,22.5,21.8,00.0,31.5,24.3,14.8,0000.0,0002.79,0000.73,0000.53
2021-12-09 06:20:00,,0812.5,5.01,0.00,22.5,21.8,00.0,31.5,24.3,14.4,0000.0,0002.96,0000.67,0000.53
2021-12-09 06:21:00,,0812.5,5.00,0.00,22.5,21.8,00.0,31.5,24.3,14.2,0000.0,0004.00,0000.69,0000.54
2021-12-09 06:22:00,,0812.6,5.00,0.00,22.5,21.8,00.0,31.5,24.2,14.3,0000.0,0004.27,0000.70,0000.54
2021-12-09 06:23:00,,0812.7,5.01,0.00,22.5,21.8,00.0,31.5,24.2,14.4,0000.0,0003.24,0000.69,0000.54
2021-12-09 06:24:00,,0812.7,4.99,0.00,22.5,21.8,00.0,31.5,24.2,14.5,0000.0,0002.96,0000.70,0000.54
2021-12-09 06:25:00,,0812.6,5.01,0.00,22.5,21.8,00.0,31.5,24.2,14.5,0000.0,0003.01,0000.72,0000.53
2021-12-09 06:26:00,,0812.6,5.00,0.00,22.5,21.8,00.0,31.5,24.2,14.5,0000.0,0003.05,0000.74,0000.54
2021-12-09 06:27:00,,0812.6,5.00,0.00,22.5,21.8,00.0,31.5,24.2,14.3,0000.0,0003.07,0000.75,0000.55
2021-12-09 06:28:00,,0812.8,4.99,0.00,22.5,21.8,00.0,31.5,24.2,14.2,0000.0,0003.17,0000.77,0000.56
2021-12-09 06:29:00,,0812.5,5.01,0.00,22.5,21.8,00.0,31.5,24.3,14.3,0000.0,0003.31,0000.83,0000.57
2021-12-09 06:30:00,,0812.5,5.02,0.00,22.5,21.8,00.0,31.5,24.3,14.0,0000.0,0003.94,0000.86,0000.58
2021-12-09 06:31:00,,0812.6,5.00,0.00,22.5,21.8,00.0,31.5,24.3,13.9,0000.0,0003.46,0000.87,0000.58
2021-12-09 06:32:00,,0812.7,4.98,0.00,22.5,21.8,00.0,31.5,24.3,14.0,0000.0,0002.45,0000.84,0000.57
2021-12-09 06:33:00,,0812.7,5.01,0.00,22.6,21.8,00.0,31.5,24.3,14.2,0000.0,0002.16,0000.83,0000.57
2021-12-09 06:34:00,,0812.6,5.00,0.00,22.6,21.8,00.0,31.5,24.3,14.2,0000.0,0002.13,0000.83,0000.57
2021-12-09 06:35:00,,0812.5,4.99,0.00,22.6,21.8,00.0,31.5,24.3,14.1,0000.0,0002.05,0000.83,0000.59
2021-12-09 06:36:00,,0812.5,5.00,0.00,22.6,21.8,00.0,31.5,24.4,14.1,0000.0,0001.99,0000.81,0000.60
2021-12-09 06:37:00,,0812.6,5.01,0.00,22.6,21.9,00.0,31.5,24.4,14.1,0000.0,0001.94,0000.80,0000.60
2021-12-09 06:38:00,,0812.6,5.00,0.00,22.6,21.9,00.0,31.6,24.4,14.0,0000.0,0001.94,0000.79,0000.59
2021-12-09 06:39:00,,0812.6,4.99,0.00,22.6,21.9,00.0,31.6,24.4,14.1,0000.0,0001.93,0000.78,0000.58
2021-12-09 06:40:00,,0812.6,5.00,0.00,22.6,21.9,00.0,31.6,24.4,14.1,0000.0,0001.82,0000.75,0000.58
2021-12-09 06:41:00,,0812.6,4.99,0.00,22.6,21.9,00.0,31.6,24.4,14.0,0000.0,0001.36,0000.74,0000.59
2021-12-09 06:42:00,,0812.7,5.00,0.00,22.6,21.9,00.0,31.6,24.3,14.0,0000.0,0001.14,0000.73,0000.58
2021-12-09 06:43:00,,0812.7,5.00,0.00,22.6,21.9,00.0,31.6,24.4,14.0,0000.0,0001.10,0000.74,0000.59
2021-12-09 06:44:00,,0812.7,5.00,0.00,22.6,21.9,00.0,31.6,24.4,14.0,0000.0,0001.09,0000.73,0000.59
2021-12-09 06:45:00,,0812.7,4.99,0.00,22.6,22.0,00.0,31.6,24.4,14.0,0000.0,0001.11,0000.75,0000.59
2021-12-09 06:46:00,,0812.7,5.00,0.00,22.6,22.0,00.0,31.6,24.5,14.0,0000.0,0001.07,0000.73,0000.58
2021-12-09 06:47:00,,0812.7,5.01,0.00,22.6,22.0,00.0,31.6,24.5,13.9,0000.0,0001.11,0000.75,0000.58
2021-12-09 06:48:00,,0812.7,4.99,0.00,22.7,22.0,00.0,31.6,24.5,13.9,0000.0,0001.22,0000.76,0000.58
2021-12-09 06:49:00,,0812.7,5.00,0.00,22.7,22.0,00.0,31.6,24.5,13.9,0000.0,0001.24,0000.76,0000.58
2021-12-09 06:50:00,,0812.8,5.00,0.00,22.7,22.0,00.0,31.6,24.5,13.9,0000.0,0001.15,0000.75,0000.58
2021-12-09 06:51:00,,0812.8,4.99,0.00,22.7,22.0,00.0,31.6,24.5,13.8,0000.0,0001.14,0000.76,0000.58
2021-12-09 06:52:00,,0812.8,4.99,0.00,22.7,22.1,00.0,31.6,24.6,13.8,0000.0,0001.10,0000.73,0000.58
2021-12-09 06:53:00,,0812.9,5.02,0.00,22.7,22.1,00.0,31.6,24.5,13.8,0000.0,0001.13,0000.74,0000.57
2021-12-09 06:54:00,,0812.9,4.98,0.00,22.7,22.1,00.0,31.6,24.6,13.8,0000.0,0001.24,0000.75,0000.57
2021-12-09 06:55:00,,0812.7,5.00,0.00,22.7,22.1,00.0,31.7,24.6,13.8,0000.0,0002.43,0000.76,0000.58
2021-12-09 06:56:00,,0812.7,5.01,0.00,22.7,22.0,00.0,31.7,24.5,13.9,0000.0,0003.03,0000.75,0000.58
2021-12-09 06:57:00,,0812.7,4.99,0.00,22.7,22.0,00.0,31.7,24.5,14.0,0000.0,0003.11,0000.77,0000.57
2021-12-09 06:58:00,,0812.7,5.00,0.00,22.7,22.0,00.0,31.7,24.5,14.0,0000.0,0003.09,0000.75,0000.57
2021-12-09 06:59:00,,0812.6,5.01,0.00,22.7,22.0,00.0,31.7,24.5,14.0,0000.0,0003.01,0000.73,0000.57
